USA 283

Last updated on Mon Sep 15 2025 00:02:49 GMT+0000 (Coordinated Universal Time)

1 43339U 18036A 25256.47014522 .00000000 00000+0 00000+0 0 9993 2 43339 0.0168 154.8722 0000152 108.7130 32.4753 1.00270238 22513
UTC large
Height (km)
Speed (km/s)
/
Latitude / Longitude
Inclination (degrees)
Orbital Period (minutes)
Azimuth
Elevation
Range (km)
Doppler Factor

Next 0 passes for location: London (51.5072 / 0.1276)

Sorry there are no passes over London.